This demonstration page uses our WeatherBlox Daily Observations layout. Learn more.

Left ArrowRight Arrow

41.12389, -100.76542

Hourly Observations for September 24, 2021

Temp ( °F °C ) Dew Point ( °F °C ) Humidity (%) Winds ( mph kmh ) Pressure ( in mb ) Visibility ( mi km ) Precip ( " mm )
12:53 am 00:53 Clear 53 11.7 44 6.7 72 72 WNW 5 7 29.91 1013 10 16 N/A
1:53 am 01:53 Clear 51 10.6 44 6.7 77 77 NW 9 15 29.92 1013 10 16 N/A
2:53 am 02:53 Clear 49 9.4 42 5.6 77 77 WNW 6 9 29.92 1013 10 16 N/A
3:53 am 03:53 Clear 48 8.9 43 6.1 83 83 NW 7 11 29.92 1013 10 16 N/A
4:53 am 04:53 Clear 56 13.3 45 7.2 67 67 NW 9 15 29.92 1013 10 16 N/A
5:53 am 05:53 Mostly Clear 59 15 45 7.2 60 60 WNW 8 13 29.95 1014 10 16 N/A
6:53 am 06:53 Clear 59 15 43 6.1 56 56 NW 8 13 30.01 1016 10 16 N/A
7:53 am 07:53 Sunny 62 16.7 43 6.1 50 50 N 17 28 30.04 1017 10 16 N/A
8:53 am 08:53 Sunny 64 17.8 44 6.7 48 48 N 15 24 30.06 1018 10 16 N/A
9:53 am 09:53 Sunny 66 18.9 44 6.7 45 45 N 14 22 30.06 1018 10 16 N/A
10:53 am 10:53 Sunny 69 20.6 41 5 36 36 N 14 22 30.09 1019 10 16 N/A
11:53 am 11:53 Sunny 68 20 44 6.7 42 42 N 17 28 30.12 1020 10 16 N/A
12:53 pm 12:53 Sunny 67 19.4 48 8.9 51 51 N 14 22 30.13 1020 10 16 N/A
1:53 pm 13:53 Partly Cloudy 69 20.6 49 9.4 49 49 N 13 20 30.14 1021 10 16 N/A
2:53 pm 14:53 Cloudy 67 19.4 47 8.3 49 49 NNE 13 20 30.14 1021 10 16 N/A
3:53 pm 15:53 Cloudy 68 20 47 8.3 47 47 VRB 3 6 30.13 1020 10 16 N/A
4:53 pm 16:53 Mostly Cloudy 69 20.6 45 7.2 42 42 ENE 6 9 30.12 1020 10 16 N/A
5:53 pm 17:53 Mostly Sunny 70 21.1 44 6.7 39 39 NE 5 7 30.11 1020 10 16 N/A
6:53 pm 18:53 Mostly Cloudy 67 19.4 42 5.6 41 41 NNE 7 11 30.13 1020 10 16 N/A
7:53 pm 19:53 Mostly Cloudy 59 15 45 7.2 60 60 SE 5 7 30.13 1020 10 16 N/A
8:53 pm 20:53 Mostly Clear 55 12.8 45 7.2 69 69 ESE 3 6 30.13 1020 10 16 N/A
9:53 pm 21:53 Clear 51 10.6 45 7.2 80 80 N N/A 30.15 1021 10 16 N/A
10:53 pm 22:53 Clear 47 8.3 42 5.6 83 83 N N/A 30.15 1021 10 16 N/A
11:53 pm 23:53 Clear 46 7.8 42 5.6 86 86 N N/A 30.16 1021 10 16 N/A

Powered by AerisWeather